Regional Weather Roundup
Issued by NWS

Home | Current Version | Previous Version | Text Only | Print | Product List | Glossary Off
Versions: 1 2 3 4 5 6 7 8 9 10 11 12 13 14 15 16 17 18 19 20 21 22 23 24 25 26 27 28 29 30 31 32 33 34 35 36 37 38 39 40 41 42 43 44 45 46 47 48 49 50

000
ASUS45 KSLC 061210
RWRUT

UTAH REGIONAL WEATHER ROUNDUP
NATIONAL WEATHER SERVICE SALT LAKE CITY UT
600 AM MDT MON JUL 06 2015

UTZ001>011-023>025-061300-

NORTHERN UTAH

CITY           SKY/WX    TMP DP  RH WIND       PRES   REMARKS
BRIGHAM CITY   MOCLDY    63  57  81 CALM      30.10R
HILL AFB       CLEAR     65  55  68 E14       30.12R
LOGAN          MOCLDY    60  57  89 CALM      30.13R
OGDEN          CLEAR     66  55  67 S13       30.10R
PROVO AIRPORT  CLEAR     61  52  72 CALM      30.12S
SALT LAKE CITY PTCLDY    70  56  61 SE8       30.08R
VERNAL         PTCLDY    61  53  75 W3        30.17R
WENDOVER       CLEAR     72  50  46 W12       30.10S
HEBER CITY     CLEAR     54  50  87 CALM      30.20S
WEST JORDAN    CLEAR     64  52  63 SW7       30.12R

$$

UTZ012>022-026-027-061300-

SOUTHERN/CENTRAL UTAH

CITY           SKY/WX    TMP DP  RH WIND       PRES   REMARKS
BLANDING       MOCLDY    63  54  74 CALM      30.25R
BRYCE CANYON   CLOUDY    56  49  77 W7        30.32S
CEDAR CITY     CLOUDY    67  48  50 SE6       30.18R
DELTA          MOCLDY    66  50  55 NE3       30.12S
HANKSVILLE     CLOUDY    68  59  73 S6        30.12S
MILFORD        MOCLDY    64  46  52 SW3       30.13R
MOAB/CYNLANDS  PTCLDY    66  59  78 S3        30.09S
PRICE          CLEAR     62  50  64 NE6       30.20R
ST GEORGE      SUNNY     79  52  38 SE9       30.03S
KANAB          CLOUDY    70  54  56 W6        30.22S

$$

REGIONAL REPORTS     COLORADO/ARIZONA

CITY           SKY/WX    TMP DP  RH WIND       PRES   REMARKS
CRAIG, CO      FOG       52  51  97 CALM      30.25S VSB 1/4
GRAND JUNCTION CLEAR     60  57  89 CALM      30.13S
RIFLE          MOCLDY    58  55  90 E6        30.21R
MONTROSE       PTCLDY    58  53  84 CALM      30.22R
CORTEZ         PTCLDY    60  53  77 N5        30.19R
PAGE, AZ       MOCLDY    78  48  34 W3        30.09R
GRAND CANYON   CLOUDY    57  54  89 CALM      30.31R
KINGMAN        PTCLDY    70  60  70 SE15      30.09S
FLAGSTAFF      CLOUDY    54  52  93 CALM      30.30S

$$

REGIONAL REPORTS    NEVADA/IDAHO/WYOMING

CITY           SKY/WX    TMP DP  RH WIND       PRES   REMARKS
LAS VEGAS, NV  CLOUDY    85  51  31 S15       29.92S
ELY            CLOUDY    61  40  45 CALM      30.24S
ELKO           CLEAR     59  48  67 CALM      30.19R
POCATELLO, ID  MOCLDY    66  54  65 SW7       30.13R
BURLEY         PTCLDY    60  54  80 NE5       30.10R
EVANSTON, WY   CLEAR     53  50  89 E10       30.29R
ROCK SPRINGS   CLOUDY    56  53  90 E5        30.29R
KEMMERER       MOCLDY    54  48  82 NE8       30.30S

$$


USA.gov is the U.S. government's official web portal to all federal, state and local government web resources and services.